Flag for Austria

Past Weather in Götzis, Vorarlberg, Austria — Yesterday and Last 2 Weeks

Now
68 °F

Mild.


Feels Like: 68 °F
Forecast: 75 / 54 °F
Wind: 1 mph from North

Location: Feldkirch

Current Time: Jul 3, 2020 at 8:01:03 pm

Latest Report: Jul 3, 2020 at 7:00 pm


Visibility: N/A

Pressure: 30.06 "Hg

Humidity: 63%

Dew Point: 55 °F

Location of GötzisLocation

Past Weather in Götzis — Graph

°F

Götzis Temperature Yesterday

Maximum temperature yesterday: 79 °F (at 2:00 pm)
Minimum temperature yesterday: 62 °F (at 4:00 am)
Average temperature yesterday: 68 °F

High & Low Weather Summary for the Past Weeks

 TemperatureHumidityPressure
High82 °F (Jul 1, 2:00 pm)98% (Jun 29, 7:00 am)30.25 "Hg (Jun 29, 7:00 am)
Low52 °F (Jun 20, 3:00 am)38% (Jun 24, 5:00 pm)29.77 "Hg (Jul 1, 5:00 pm)
Average66 °F74%30.02 "Hg
* Reported Jun 18 6:00 pm — Jul 3 6:00 pm, Götzis. Weather by CustomWeather, © 2020

Note: Actual official high and low records may vary slightly from our data, if they occured in-between our weather recording intervals... More about our weather records

Götzis Weather History for the Previous 24 Hours

Scroll right to see more
 ConditionsComfort  
Time TempWeatherWind HumidityBarometerVisibility
6:00 pm
Fri, Jul 3
68 °FMild.2 mph60%30.05 "HgN/A
5:00 pm69 °FMild.2 mph57%30.05 "HgN/A
4:00 pm71 °FMild.2 mph60%30.04 "HgN/A
2:00 pm68 °FMild.1 mph68%30.07 "HgN/A
1:00 pm65 °FMild.1 mph71%30.09 "HgN/A
12:00 pm66 °FMild.1 mph74%30.08 "HgN/A
11:00 am64 °FOvercast.1 mph78%30.09 "Hg6 mi
10:00 am61 °FCool.1 mph86%30.09 "HgN/A
9:00 am59 °FCool.1 mph94%30.09 "HgN/A
8:00 am58 °FCool.1 mph94%30.08 "HgN/A
7:00 am58 °FLight rain. Overcast.1 mph95%30.07 "Hg6 mi
6:00 am58 °FFog.2 mph94%30.05 "HgN/A
5:00 am61 °FFog.1 mph93%30.03 "HgN/A
4:00 am61 °FCool.1 mph90%30.01 "HgN/A
3:00 am61 °FCool.1 mph93%30.01 "HgN/A
2:00 am63 °FMild.1 mph82%30.00 "HgN/A
1:00 am62 °FCool.1 mph92%30.01 "HgN/A
12:00 am63 °FMild.1 mph91%30.01 "HgN/A
11:00 pm
Thu, Jul 2
63 °FMild.2 mph92%29.99 "HgN/A
9:00 pm65 °FSprinkles. Cloudy.2 mph91%29.95 "HgN/A
8:00 pm66 °FMild.1 mph92%29.94 "HgN/A
Weather by CustomWeather, © 2020

See weather overview